Data No,UTC Date,UTC Time,Latitude,Longitude,Course(deg),Temp(degC),Sal(psu)
497,2022/7/28,8:16,42-36.78N,141-36.93E,213,20.57,31.8273
498,2022/7/28,8:17,42-36.53N,141-36.82E,188,20.498,31.7677
499,2022/7/28,8:18,42-36.27N,141-36.94E,159,20.552,31.89
500,2022/7/28,8:19,42-36.02N,141-37.09E,157,20.442,31.8664
501,2022/7/28,8:20,42-35.74N,141-37.25E,156,20.312,31.9567
502,2022/7/28,8:21,42-35.46N,141-37.43E,155,20.976,31.9525
503,2022/7/28,8:22,42-35.22N,141-37.58E,155,20.953,31.9397
504,2022/7/28,8:23,42-34.93N,141-37.76E,155,21.186,31.8943
505,2022/7/28,8:24,42-34.64N,141-37.93E,155,21.191,31.8537
506,2022/7/28,8:25,42-34.35N,141-38.11E,155,21.841,31.7957
507,2022/7/28,8:26,42-34.05N,141-38.29E,155,22.115,31.7673
508,2022/7/28,8:27,42-33.74N,141-38.48E,156,22.375,31.755
509,2022/7/28,8:28,42-33.45N,141-38.65E,156,22.53,31.8151
510,2022/7/28,8:29,42-33.14N,141-38.83E,156,22.214,31.8144
511,2022/7/28,8:30,42-32.85N,141-39.01E,151,21.805,31.8542
512,2022/7/28,8:31,42-32.58N,141-39.28E,141,21.602,31.9575
513,2022/7/28,8:32,42-32.33N,141-39.58E,138,22.206,32.0475
514,2022/7/28,8:33,42-32.08N,141-39.87E,138,21.992,32.0446
515,2022/7/28,8:34,42-31.84N,141-40.17E,137,21.584,31.9192
516,2022/7/28,8:35,42-31.58N,141-40.49E,138,21.591,32.0006
517,2022/7/28,8:36,42-31.32N,141-40.80E,138,21.327,32.0661
518,2022/7/28,8:37,42-31.07N,141-41.10E,138,21.353,32.1656
519,2022/7/28,8:38,42-30.80N,141-41.43E,137,21.283,32.2296
520,2022/7/28,8:39,42-30.55N,141-41.73E,138,21.149,32.2762
521,2022/7/28,8:40,42-30.29N,141-42.04E,138,20.85,32.3368
522,2022/7/28,8:41,42-30.02N,141-42.37E,138,20.849,32.3963
523,2022/7/28,8:42,42-29.76N,141-42.68E,138,20.861,32.4683
524,2022/7/28,8:43,42-29.50N,141-43.01E,137,20.987,32.4726
525,2022/7/28,8:44,42-29.23N,141-43.32E,138,20.966,32.4442
526,2022/7/28,8:45,42-28.97N,141-43.64E,137,21.005,32.4173
527,2022/7/28,8:46,42-28.69N,141-43.98E,137,20.903,32.3901
528,2022/7/28,8:47,42-28.43N,141-44.30E,138,20.918,32.3715
529,2022/7/28,8:48,42-28.16N,141-44.63E,138,20.934,32.3513
530,2022/7/28,8:49,42-27.89N,141-44.97E,137,20.95,32.3205
531,2022/7/28,8:50,42-27.63N,141-45.29E,138,21.081,32.288
532,2022/7/28,8:51,42-27.35N,141-45.63E,137,20.885,32.2766
533,2022/7/28,8:52,42-27.08N,141-45.95E,138,21.224,32.3012
534,2022/7/28,8:53,42-26.80N,141-46.29E,138,21.292,32.3337
535,2022/7/28,8:54,42-26.52N,141-46.63E,138,21.244,32.3649
536,2022/7/28,8:55,42-26.25N,141-46.97E,138,21.216,32.4109
537,2022/7/28,8:56,42-25.97N,141-47.30E,138,21.069,32.444
538,2022/7/28,8:57,42-25.70N,141-47.63E,139,20.789,32.4681
539,2022/7/28,8:58,42-25.47N,141-48.02E,121,20.791,32.5041
540,2022/7/28,8:59,42-25.30N,141-48.45E,117,21.031,32.5176
541,2022/7/28,9:00,42-25.13N,141-48.90E,117,21.684,32.5376
542,2022/7/28,9:01,42-24.95N,141-49.35E,118,21.832,32.495
543,2022/7/28,9:02,42-24.78N,141-49.79E,118,21.759,32.4229
544,2022/7/28,9:03,42-24.60N,141-50.22E,119,21.8,32.414
545,2022/7/28,9:04,42-24.43N,141-50.65E,118,21.969,32.4078
546,2022/7/28,9:05,42-24.25N,141-51.09E,119,21.958,32.3846
547,2022/7/28,9:06,42-24.07N,141-51.52E,119,21.962,32.3384
548,2022/7/28,9:07,42-23.90N,141-51.94E,119,22.198,32.2868
549,2022/7/28,9:08,42-23.75N,141-52.38E,107,21.985,32.2275
550,2022/7/28,9:09,42-23.66N,141-52.83E,105,21.361,32.0344
551,2022/7/28,9:10,42-23.55N,141-53.28E,110,21.604,31.9463
552,2022/7/28,9:11,42-23.40N,141-53.73E,114,21.434,31.9151
553,2022/7/28,9:12,42-23.24N,141-54.14E,119,21.424,31.8405
554,2022/7/28,9:13,42-23.06N,141-54.57E,118,20.666,31.8382
555,2022/7/28,9:14,42-22.89N,141-55.00E,118,20.467,31.9409
556,2022/7/28,9:15,42-22.72N,141-55.41E,119,20.352,32.0378
557,2022/7/28,9:16,42-22.54N,141-55.85E,119,20.773,32.0887
558,2022/7/28,9:17,42-22.34N,141-56.26E,123,21.543,32.1072
559,2022/7/28,9:18,42-22.14N,141-56.66E,125,21.3,31.9818
560,2022/7/28,9:19,42-21.93N,141-57.04E,125,20.311,31.928
561,2022/7/28,9:20,42-21.72N,141-57.43E,127,20.725,32.0554
562,2022/7/28,9:21,42-21.50N,141-57.82E,128,20.855,32.1274
563,2022/7/28,9:22,42-21.28N,141-58.20E,128,20.716,32.1037
564,2022/7/28,9:23,42-21.05N,141-58.58E,128,20.823,32.153
565,2022/7/28,9:24,42-20.83N,141-58.95E,128,20.984,32.1955
566,2022/7/28,9:25,42-20.62N,141-59.33E,126,20.606,32.1926
567,2022/7/28,9:26,42-20.41N,141-59.73E,123,20.924,32.2472
568,2022/7/28,9:27,42-20.22N,142-00.13E,123,20.861,32.269
569,2022/7/28,9:28,42-20.02N,142-00.52E,123,20.932,32.2513
570,2022/7/28,9:29,42-19.83N,142-00.92E,122,20.758,32.2422
571,2022/7/28,9:30,42-19.64N,142-01.32E,122,20.587,32.2267
572,2022/7/28,9:31,42-19.45N,142-01.72E,123,20.627,32.221
573,2022/7/28,9:32,42-19.27N,142-02.11E,122,20.626,32.1944
574,2022/7/28,9:33,42-19.09N,142-02.52E,120,20.764,32.1748
575,2022/7/28,9:34,42-18.91N,142-02.92E,119,20.795,32.1276
576,2022/7/28,9:35,42-18.74N,142-03.35E,119,20.891,32.0656
577,2022/7/28,9:36,42-18.57N,142-03.76E,118,20.648,32.0162
578,2022/7/28,9:37,42-18.40N,142-04.15E,119,20.926,32.0192
579,2022/7/28,9:38,42-18.23N,142-04.56E,119,20.718,32.0107
580,2022/7/28,9:39,42-18.05N,142-04.99E,119,20.757,32.0792
581,2022/7/28,9:40,42-17.88N,142-05.38E,119,20.32,32.1714
582,2022/7/28,9:41,42-17.72N,142-05.80E,118,20.385,32.3148
583,2022/7/28,9:42,42-17.55N,142-06.22E,119,20.783,32.387
584,2022/7/28,9:43,42-17.38N,142-06.61E,119,20.673,32.3885
585,2022/7/28,9:44,42-17.21N,142-07.03E,118,20.412,32.3994
586,2022/7/28,9:45,42-17.04N,142-07.45E,119,20.676,32.4213
587,2022/7/28,9:46,42-16.88N,142-07.86E,118,20.592,32.4092
588,2022/7/28,9:47,42-16.72N,142-08.25E,118,20.684,32.4335
589,2022/7/28,9:48,42-16.54N,142-08.67E,119,20.607,32.4264
590,2022/7/28,9:49,42-16.38N,142-09.08E,118,20.404,32.4179
591,2022/7/28,9:50,42-16.21N,142-09.48E,119,20.402,32.452
592,2022/7/28,9:51,42-16.04N,142-09.90E,119,20.427,32.5211
593,2022/7/28,9:52,42-15.86N,142-10.32E,119,20.486,32.5905
594,2022/7/28,9:53,42-15.70N,142-10.71E,119,20.805,32.6963
595,2022/7/28,9:54,42-15.52N,142-11.13E,119,20.999,32.706
596,2022/7/28,9:55,42-15.35N,142-11.55E,119,21.162,32.779
597,2022/7/28,9:56,42-15.19N,142-11.95E,119,21.166,32.8057
598,2022/7/28,9:57,42-15.02N,142-12.35E,119,21.416,32.816
599,2022/7/28,9:58,42-14.84N,142-12.78E,119,21.599,32.9017
600,2022/7/28,9:59,42-14.68N,142-13.18E,118,21.463,32.9593
601,2022/7/28,10:00,42-14.52N,142-13.58E,119,21.595,33.0291
602,2022/7/28,10:01,42-14.35N,142-14.00E,118,21.294,33.0958
603,2022/7/28,10:02,42-14.19N,142-14.40E,118,21.1,33.1574
604,2022/7/28,10:03,42-14.02N,142-14.82E,118,21.176,33.1813
605,2022/7/28,10:04,42-13.84N,142-15.23E,120,20.752,33.1767
606,2022/7/28,10:05,42-13.66N,142-15.62E,121,20.907,33.2047
607,2022/7/28,10:06,42-13.48N,142-16.02E,121,21.015,33.1802
608,2022/7/28,10:07,42-13.29N,142-16.43E,122,20.49,33.139
609,2022/7/28,10:08,42-13.11N,142-16.81E,122,20.746,33.1443
610,2022/7/28,10:09,42-12.92N,142-17.22E,121,20.979,33.1447
611,2022/7/28,10:10,42-12.74N,142-17.63E,121,21.057,33.1103
612,2022/7/28,10:11,42-12.56N,142-18.02E,121,21.032,33.0822
613,2022/7/28,10:12,42-12.38N,142-18.41E,121,20.965,33.0905
614,2022/7/28,10:13,42-12.19N,142-18.82E,121,20.914,33.1207
615,2022/7/28,10:14,42-12.00N,142-19.23E,121,20.572,33.1573
616,2022/7/28,10:15,42-11.83N,142-19.62E,121,20.674,33.2153
617,2022/7/28,10:16,42-11.64N,142-20.03E,121,20.991,33.2357
618,2022/7/28,10:17,42-11.46N,142-20.43E,121,20.862,33.2132
619,2022/7/28,10:18,42-11.28N,142-20.83E,121,20.771,33.1892
620,2022/7/28,10:19,42-11.10N,142-21.24E,120,20.8,33.1839
621,2022/7/28,10:20,42-10.92N,142-21.64E,120,20.834,33.1686
622,2022/7/28,10:21,42-10.74N,142-22.06E,120,20.848,33.1515
623,2022/7/28,10:22,42-10.56N,142-22.47E,120,20.908,33.1164
624,2022/7/28,10:23,42-10.38N,142-22.88E,120,20.846,33.081
625,2022/7/28,10:24,42-10.20N,142-23.30E,120,20.802,33.016
626,2022/7/28,10:25,42-10.02N,142-23.70E,120,20.718,32.9857
627,2022/7/28,10:26,42-09.82N,142-24.13E,120,20.66,32.9723
628,2022/7/28,10:27,42-09.65N,142-24.53E,120,20.758,32.9841
629,2022/7/28,10:28,42-09.47N,142-24.94E,120,20.787,32.9813
630,2022/7/28,10:29,42-09.28N,142-25.36E,120,20.454,32.984
631,2022/7/28,10:30,42-09.10N,142-25.76E,121,19.964,33.0137
632,2022/7/28,10:31,42-08.92N,142-26.17E,121,19.474,33.0839
633,2022/7/28,10:32,42-08.73N,142-26.59E,121,19.386,33.1468
634,2022/7/28,10:33,42-08.55N,142-26.98E,121,19.722,33.1902
635,2022/7/28,10:34,42-08.36N,142-27.40E,121,20.065,33.2071
636,2022/7/28,10:35,42-08.17N,142-27.81E,121,20.225,33.1973
637,2022/7/28,10:36,42-07.99N,142-28.21E,121,20.453,33.1758
638,2022/7/28,10:37,42-07.81N,142-28.62E,121,20.429,33.1567
639,2022/7/28,10:38,42-07.62N,142-29.02E,121,20.443,33.0975
640,2022/7/28,10:39,42-07.43N,142-29.44E,121,20.521,33.085
641,2022/7/28,10:40,42-07.24N,142-29.85E,121,20.337,33.0474
642,2022/7/28,10:41,42-07.06N,142-30.25E,121,20.263,33.0427
643,2022/7/28,10:42,42-06.87N,142-30.65E,121,20.276,33.0182
644,2022/7/28,10:43,42-06.69N,142-31.05E,121,20.407,33.0357
645,2022/7/28,10:44,42-06.51N,142-31.46E,121,20.532,33.0077
646,2022/7/28,10:45,42-06.31N,142-31.88E,121,20.593,32.9764
647,2022/7/28,10:46,42-06.13N,142-32.27E,121,20.527,32.921
648,2022/7/28,10:47,42-05.95N,142-32.67E,121,20.642,32.8883
649,2022/7/28,10:48,42-05.77N,142-33.07E,121,20.722,32.858
650,2022/7/28,10:49,42-05.59N,142-33.48E,121,20.621,32.8055
651,2022/7/28,10:50,42-05.40N,142-33.89E,121,20.56,32.7609
652,2022/7/28,10:51,42-05.22N,142-34.28E,121,20.416,32.751
653,2022/7/28,10:52,42-05.04N,142-34.68E,121,20.108,32.7842
654,2022/7/28,10:53,42-04.86N,142-35.08E,121,20.405,32.8826
655,2022/7/28,10:54,42-04.67N,142-35.49E,121,20.555,32.8891
656,2022/7/28,10:55,42-04.49N,142-35.89E,120,20.586,32.8034
657,2022/7/28,10:56,42-04.30N,142-36.31E,120,20.61,32.7631
658,2022/7/28,10:57,42-04.13N,142-36.70E,120,20.605,32.7797
659,2022/7/28,10:58,42-03.95N,142-37.11E,120,20.612,32.8097
660,2022/7/28,10:59,42-03.76N,142-37.52E,120,20.615,32.8626
661,2022/7/28,11:00,42-03.55N,142-37.99E,120,20.62,32.8995
662,2022/7/28,11:01,42-03.41N,142-38.34E,120,20.683,32.936
663,2022/7/28,11:02,42-03.23N,142-38.74E,120,20.672,32.952
664,2022/7/28,11:03,42-03.05N,142-39.15E,120,20.648,32.9514
665,2022/7/28,11:04,42-02.87N,142-39.56E,120,20.746,32.9524
666,2022/7/28,11:05,42-02.69N,142-39.97E,120,20.703,32.9369
667,2022/7/28,11:06,42-02.51N,142-40.39E,120,20.663,32.9069
668,2022/7/28,11:07,42-02.34N,142-40.79E,120,20.678,32.8926
669,2022/7/28,11:08,42-02.14N,142-41.21E,120,20.743,32.8807
670,2022/7/28,11:09,42-01.95N,142-41.62E,120,20.747,32.8539
671,2022/7/28,11:10,42-01.77N,142-42.05E,120,20.755,32.8289
672,2022/7/28,11:11,42-01.56N,142-42.50E,120,20.679,32.8009
673,2022/7/28,11:12,42-01.38N,142-42.92E,121,20.658,32.793
674,2022/7/28,11:13,42-01.18N,142-43.35E,121,20.625,32.7874
675,2022/7/28,11:14,42-01.01N,142-43.75E,120,20.651,32.7863
676,2022/7/28,11:15,42-00.83N,142-44.13E,121,20.651,32.7741
677,2022/7/28,11:16,42-00.65N,142-44.56E,120,20.706,32.7556
678,2022/7/28,11:17,42-00.46N,142-44.98E,121,20.79,32.729
679,2022/7/28,11:18,42-00.27N,142-45.39E,121,20.769,32.7
680,2022/7/28,11:19,42-00.07N,142-45.81E,122,20.789,32.6762
681,2022/7/28,11:20,41-59.88N,142-46.21E,123,20.851,32.6729
682,2022/7/28,11:21,41-59.68N,142-46.62E,123,20.821,32.6677
683,2022/7/28,11:22,41-59.48N,142-47.03E,123,20.825,32.666
684,2022/7/28,11:23,41-59.29N,142-47.42E,123,20.864,32.6657
685,2022/7/28,11:24,41-59.11N,142-47.78E,123,20.903,32.6576
686,2022/7/28,11:25,41-58.91N,142-48.18E,123,20.975,32.6534
687,2022/7/28,11:26,41-58.71N,142-48.58E,123,21.022,32.6413
688,2022/7/28,11:27,41-58.51N,142-48.99E,123,21.064,32.6274
689,2022/7/28,11:28,41-58.28N,142-49.46E,123,21.085,32.6146
690,2022/7/28,11:29,41-58.08N,142-49.87E,123,21.19,32.5954
691,2022/7/28,11:30,41-57.88N,142-50.26E,124,21.288,32.5934
692,2022/7/28,11:31,41-57.68N,142-50.67E,124,21.257,32.5767
693,2022/7/28,11:32,41-57.47N,142-51.07E,124,21.191,32.5802
694,2022/7/28,11:33,41-57.28N,142-51.45E,124,21.145,32.5886
695,2022/7/28,11:34,41-57.10N,142-51.82E,124,21.216,32.62
696,2022/7/28,11:35,41-56.90N,142-52.20E,124,21.203,32.615
697,2022/7/28,11:36,41-56.69N,142-52.61E,124,21.372,32.6187
698,2022/7/28,11:37,41-56.49N,142-53.00E,124,21.583,32.6395
699,2022/7/28,11:38,41-56.29N,142-53.39E,124,21.734,32.6309
700,2022/7/28,11:39,41-56.08N,142-53.80E,124,21.846,32.6157
701,2022/7/28,11:40,41-55.88N,142-54.19E,124,21.9,32.5992
702,2022/7/28,11:41,41-55.67N,142-54.59E,124,21.912,32.6038
703,2022/7/28,11:42,41-55.46N,142-55.00E,124,21.985,32.615
704,2022/7/28,11:43,41-55.26N,142-55.38E,124,22.104,32.6191
705,2022/7/28,11:44,41-55.05N,142-55.79E,124,22.247,32.6183
706,2022/7/28,11:45,41-54.85N,142-56.18E,124,22.249,32.6177
707,2022/7/28,11:46,41-54.65N,142-56.58E,124,21.945,32.6384
708,2022/7/28,11:47,41-54.44N,142-56.98E,124,21.541,32.7839
709,2022/7/28,11:48,41-54.24N,142-57.37E,124,21.53,32.8972
710,2022/7/28,11:49,41-54.04N,142-57.77E,125,21.277,33.0709
711,2022/7/28,11:50,41-53.84N,142-58.16E,122,20.633,33.2182
712,2022/7/28,11:51,41-53.65N,142-58.57E,122,20.634,33.2739
713,2022/7/28,11:52,41-53.46N,142-58.98E,121,20.492,33.1943
714,2022/7/28,11:53,41-53.27N,142-59.39E,122,20.816,33.0673
715,2022/7/28,11:54,41-53.08N,142-59.80E,122,20.083,33.0193
716,2022/7/28,11:55,41-52.88N,143-00.21E,122,19.861,32.9016
717,2022/7/28,11:56,41-52.70N,143-00.61E,122,20.043,32.8409
718,2022/7/28,11:57,41-52.51N,143-01.02E,122,19.965,32.7774
719,2022/7/28,11:58,41-52.31N,143-01.45E,122,20.206,32.724
720,2022/7/28,11:59,41-52.09N,143-01.91E,122,20.285,32.6935
721,2022/7/28,12:00,41-51.91N,143-02.30E,121,20.352,32.669
722,2022/7/28,12:01,41-51.75N,143-02.65E,121,20.45,32.6457
723,2022/7/28,12:02,41-51.56N,143-03.06E,121,20.535,32.6274
724,2022/7/28,12:03,41-51.39N,143-03.46E,118,20.484,32.6108
725,2022/7/28,12:04,41-51.23N,143-03.89E,116,20.5,32.5933
726,2022/7/28,12:05,41-51.09N,143-04.32E,111,20.353,32.6151
727,2022/7/28,12:06,41-50.99N,143-04.77E,105,20.286,32.6484
728,2022/7/28,12:07,41-50.90N,143-05.25E,104,20.357,32.711
729,2022/7/28,12:08,41-50.81N,143-05.69E,103,20.523,32.7263
730,2022/7/28,12:09,41-50.73N,143-06.17E,103,20.673,32.7356
731,2022/7/28,12:10,41-50.65N,143-06.61E,103,20.638,32.7436
732,2022/7/28,12:11,41-50.57N,143-07.06E,103,20.564,32.8095
733,2022/7/28,12:12,41-50.49N,143-07.52E,103,20.52,32.8673
734,2022/7/28,12:13,41-50.41N,143-07.96E,103,20.561,32.8902
735,2022/7/28,12:14,41-50.33N,143-08.41E,103,19.851,32.895
736,2022/7/28,12:15,41-50.24N,143-08.85E,104,18.728,32.8965
737,2022/7/28,12:16,41-50.16N,143-09.29E,104,19.124,32.9345
738,2022/7/28,12:17,41-50.07N,143-09.74E,104,19.834,32.8886
739,2022/7/28,12:18,41-49.99N,143-10.18E,104,20.055,32.8508
740,2022/7/28,12:19,41-49.90N,143-10.62E,104,20.561,32.8027
741,2022/7/28,12:20,41-49.81N,143-11.06E,105,20.731,32.7398
742,2022/7/28,12:21,41-49.73N,143-11.50E,105,21.094,32.6971
743,2022/7/28,12:22,41-49.63N,143-11.94E,105,20.906,32.6602
744,2022/7/28,12:23,41-49.55N,143-12.37E,104,21.214,32.5538
745,2022/7/28,12:24,41-49.46N,143-12.83E,105,21.524,32.2159
746,2022/7/28,12:25,41-49.37N,143-13.25E,106,21.506,31.9326
747,2022/7/28,12:26,41-49.28N,143-13.69E,105,21.517,32.0021
748,2022/7/28,12:27,41-49.19N,143-14.13E,105,20.864,32.0484
749,2022/7/28,12:28,41-49.11N,143-14.56E,104,21.072,32.1581
750,2022/7/28,12:29,41-49.02N,143-15.02E,104,19.578,32.1886
751,2022/7/28,12:30,41-48.94N,143-15.43E,104,18.295,32.2595
752,2022/7/28,12:31,41-48.85N,143-15.88E,104,19.001,32.3442
753,2022/7/28,12:32,41-48.77N,143-16.33E,104,18.892,32.364
754,2022/7/28,12:33,41-48.70N,143-16.76E,98,19.015,32.3317
755,2022/7/28,12:34,41-48.77N,143-17.17E,65,19.583,32.3744
756,2022/7/28,12:35,41-48.95N,143-17.51E,52,19.861,32.3753
757,2022/7/28,12:36,41-49.15N,143-17.87E,53,20.249,32.3987
758,2022/7/28,12:37,41-49.36N,143-18.23E,52,20.794,32.4509
759,2022/7/28,12:38,41-49.56N,143-18.58E,52,20.764,32.4331
760,2022/7/28,12:39,41-49.76N,143-18.94E,52,21.044,32.5783
761,2022/7/28,12:40,41-49.96N,143-19.30E,54,21.211,32.7118
762,2022/7/28,12:41,41-50.16N,143-19.67E,54,20.607,32.7038
763,2022/7/28,12:42,41-50.36N,143-20.04E,54,20.867,32.903
764,2022/7/28,12:43,41-50.56N,143-20.40E,54,21.066,32.9854
765,2022/7/28,12:44,41-50.75N,143-20.77E,54,21.108,33.0358
766,2022/7/28,12:45,41-50.96N,143-21.13E,49,20.484,33.0286
767,2022/7/28,12:46,41-51.21N,143-21.46E,44,21.048,33.1901
768,2022/7/28,12:47,41-51.44N,143-21.76E,43,21.081,33.1983
769,2022/7/28,12:48,41-51.68N,143-22.05E,42,21.257,33.2152
770,2022/7/28,12:49,41-51.92N,143-22.35E,42,21.323,33.2525
771,2022/7/28,12:50,41-52.16N,143-22.63E,40,21.222,33.2495
772,2022/7/28,12:51,41-52.41N,143-22.91E,39,21.465,33.268
773,2022/7/28,12:52,41-52.67N,143-23.19E,39,21.53,33.2707
774,2022/7/28,12:53,41-52.91N,143-23.45E,39,21.545,33.2484
775,2022/7/28,12:54,41-53.18N,143-23.73E,37,21.532,33.2647
776,2022/7/28,12:55,41-53.43N,143-23.97E,35,21.491,33.2862
777,2022/7/28,12:56,41-53.69N,143-24.21E,33,21.5,33.3218
778,2022/7/28,12:57,41-53.97N,143-24.46E,34,21.531,33.3551
779,2022/7/28,12:58,41-54.23N,143-24.69E,33,21.502,33.3654
780,2022/7/28,12:59,41-54.50N,143-24.92E,32,21.709,33.3737
781,2022/7/28,13:00,41-54.78N,143-25.17E,33,21.557,33.3756
782,2022/7/28,13:01,41-55.04N,143-25.40E,33,21.661,33.3615
783,2022/7/28,13:02,41-55.32N,143-25.64E,33,21.673,33.3455
784,2022/7/28,13:03,41-55.59N,143-25.87E,32,21.629,33.3394
785,2022/7/28,13:04,41-55.87N,143-26.12E,33,21.223,33.3429
786,2022/7/28,13:05,41-56.14N,143-26.35E,32,21.194,33.3425
787,2022/7/28,13:06,41-56.41N,143-26.58E,30,21.16,33.3414
788,2022/7/28,13:07,41-56.70N,143-26.79E,29,21.375,33.3513
789,2022/7/28,13:08,41-56.98N,143-27.00E,28,21.376,33.3698
790,2022/7/28,13:09,41-57.26N,143-27.21E,29,21.406,33.3766
791,2022/7/28,13:10,41-57.55N,143-27.42E,28,21.504,33.3903
792,2022/7/28,13:11,41-57.83N,143-27.63E,28,21.613,33.4037
793,2022/7/28,13:12,41-58.12N,143-27.84E,28,21.703,33.4174
794,2022/7/28,13:13,41-58.41N,143-28.05E,28,21.719,33.4373
795,2022/7/28,13:14,41-58.69N,143-28.26E,28,21.703,33.4528
796,2022/7/28,13:15,41-58.98N,143-28.47E,29,21.673,33.4969
797,2022/7/28,13:16,41-59.27N,143-28.68E,28,21.596,33.5224
798,2022/7/28,13:17,41-59.56N,143-28.89E,28,21.548,33.5323
799,2022/7/28,13:18,41-59.86N,143-29.11E,28,21.508,33.5364
800,2022/7/28,13:19,42-00.12N,143-29.31E,28,21.51,33.5266
801,2022/7/28,13:20,42-00.42N,143-29.52E,27,21.579,33.525
802,2022/7/28,13:21,42-00.70N,143-29.72E,28,21.51,33.5189
803,2022/7/28,13:22,42-00.99N,143-29.94E,28,21.493,33.517
804,2022/7/28,13:23,42-01.28N,143-30.14E,28,21.52,33.5163
805,2022/7/28,13:24,42-01.57N,143-30.36E,28,21.546,33.5124
806,2022/7/28,13:25,42-01.87N,143-30.55E,24,21.495,33.5142
807,2022/7/28,13:26,42-02.16N,143-30.74E,27,21.323,33.5136
808,2022/7/28,13:27,42-02.46N,143-30.96E,29,21.284,33.4604
809,2022/7/28,13:28,42-02.73N,143-31.16E,28,21.261,33.2782
810,2022/7/28,13:29,42-03.03N,143-31.37E,27,21.092,33.2052
811,2022/7/28,13:30,42-03.32N,143-31.58E,27,21.33,33.1324
812,2022/7/28,13:31,42-03.61N,143-31.78E,28,21.276,33.0639
813,2022/7/28,13:32,42-03.91N,143-31.98E,25,20.941,33.0218
814,2022/7/28,13:33,42-04.22N,143-32.12E,15,21.224,32.9461
815,2022/7/28,13:34,42-04.53N,143-32.21E,11,21.331,32.9372
816,2022/7/28,13:35,42-04.86N,143-32.30E,10,21.405,32.9703
817,2022/7/28,13:36,42-05.18N,143-32.38E,10,21.448,32.9687
818,2022/7/28,13:37,42-05.52N,143-32.46E,11,21.447,32.9502
819,2022/7/28,13:38,42-05.83N,143-32.54E,11,21.454,32.9321
820,2022/7/28,13:39,42-06.16N,143-32.63E,10,21.458,32.9739
821,2022/7/28,13:40,42-06.49N,143-32.72E,10,21.446,32.9706
822,2022/7/28,13:41,42-06.81N,143-32.80E,10,21.467,33.013
823,2022/7/28,13:42,42-07.15N,143-32.89E,11,21.437,33.0656
824,2022/7/28,13:43,42-07.46N,143-32.97E,11,21.415,33.08
825,2022/7/28,13:44,42-07.79N,143-33.06E,11,21.404,33.0584
826,2022/7/28,13:45,42-08.13N,143-33.15E,11,21.403,33.0264
827,2022/7/28,13:46,42-08.44N,143-33.23E,11,21.448,33.0356
828,2022/7/28,13:47,42-08.77N,143-33.32E,11,21.542,33.0347
829,2022/7/28,13:48,42-09.10N,143-33.41E,11,21.627,33.0513
830,2022/7/28,13:49,42-09.42N,143-33.50E,11,21.606,33.0532
831,2022/7/28,13:50,42-09.75N,143-33.60E,11,21.606,33.0377
832,2022/7/28,13:51,42-10.07N,143-33.69E,12,21.629,33.0258
833,2022/7/28,13:52,42-10.41N,143-33.79E,12,21.701,33.0324
834,2022/7/28,13:53,42-10.73N,143-33.88E,12,21.784,33.0516
835,2022/7/28,13:54,42-11.05N,143-33.97E,12,21.817,33.0911
836,2022/7/28,13:55,42-11.39N,143-34.07E,12,21.948,33.119
837,2022/7/28,13:56,42-11.71N,143-34.16E,12,21.993,33.1581
838,2022/7/28,13:57,42-12.03N,143-34.26E,12,21.999,33.1972
839,2022/7/28,13:58,42-12.36N,143-34.35E,12,21.861,33.2148
840,2022/7/28,13:59,42-12.68N,143-34.45E,12,21.755,33.2119
841,2022/7/28,14:00,42-13.01N,143-34.57E,17,21.662,33.1789
842,2022/7/28,14:01,42-13.32N,143-34.73E,23,21.617,33.1309
843,2022/7/28,14:02,42-13.61N,143-34.94E,31,21.617,33.0829
844,2022/7/28,14:03,42-13.88N,143-35.20E,38,21.65,33.0383
845,2022/7/28,14:04,42-14.13N,143-35.50E,42,21.807,33.0233
846,2022/7/28,14:05,42-14.38N,143-35.81E,43,21.864,33.0641
847,2022/7/28,14:06,42-14.61N,143-36.10E,43,21.872,33.1868
848,2022/7/28,14:07,42-14.86N,143-36.42E,43,21.924,33.2577
849,2022/7/28,14:08,42-15.09N,143-36.72E,43,22.009,33.2975
850,2022/7/28,14:09,42-15.36N,143-37.06E,43,22.041,33.3451
851,2022/7/28,14:10,42-15.62N,143-37.39E,43,22.033,33.4619
852,2022/7/28,14:11,42-15.85N,143-37.67E,43,22.034,33.5185
853,2022/7/28,14:12,42-16.07N,143-37.95E,42,22.102,33.5383
854,2022/7/28,14:13,42-16.29N,143-38.29E,50,22.167,33.5321
855,2022/7/28,14:14,42-16.49N,143-38.64E,53,22.171,33.5328
856,2022/7/28,14:15,42-16.68N,143-39.00E,54,22.127,33.5277
857,2022/7/28,14:16,42-16.87N,143-39.36E,54,22.09,33.5369
858,2022/7/28,14:17,42-17.07N,143-39.72E,54,22.026,33.5506
859,2022/7/28,14:18,42-17.26N,143-40.09E,54,22.034,33.5559
860,2022/7/28,14:19,42-17.45N,143-40.45E,54,21.997,33.5614
861,2022/7/28,14:20,42-17.65N,143-40.83E,55,21.882,33.5653
862,2022/7/28,14:21,42-17.83N,143-41.18E,55,21.937,33.5594
863,2022/7/28,14:22,42-18.03N,143-41.55E,55,21.997,33.5527
864,2022/7/28,14:23,42-18.22N,143-41.92E,54,22.006,33.5509
865,2022/7/28,14:24,42-18.41N,143-42.27E,52,21.96,33.5438
866,2022/7/28,14:25,42-18.63N,143-42.62E,49,21.862,33.5283
867,2022/7/28,14:26,42-18.84N,143-42.95E,48,21.854,33.497
868,2022/7/28,14:27,42-19.07N,143-43.26E,42,21.793,33.4564
869,2022/7/28,14:28,42-19.34N,143-43.53E,36,21.785,33.4311
870,2022/7/28,14:29,42-19.61N,143-43.76E,30,21.798,33.4035
871,2022/7/28,14:30,42-19.89N,143-43.97E,28,21.789,33.3771
872,2022/7/28,14:31,42-20.18N,143-44.18E,28,21.797,33.3528
873,2022/7/28,14:32,42-20.46N,143-44.38E,28,21.763,33.3221
874,2022/7/28,14:33,42-20.75N,143-44.60E,29,21.74,33.2875
875,2022/7/28,14:34,42-21.04N,143-44.83E,30,21.77,33.2452
876,2022/7/28,14:35,42-21.30N,143-45.05E,31,21.794,33.2136
877,2022/7/28,14:36,42-21.58N,143-45.27E,30,21.818,33.1861
878,2022/7/28,14:37,42-21.85N,143-45.49E,30,21.782,33.1467
879,2022/7/28,14:38,42-22.13N,143-45.71E,31,21.737,33.1037
880,2022/7/28,14:39,42-22.42N,143-45.94E,30,21.81,33.0519
881,2022/7/28,14:40,42-22.68N,143-46.16E,31,21.732,33.0009
882,2022/7/28,14:41,42-22.96N,143-46.39E,31,21.825,32.964
883,2022/7/28,14:42,42-23.23N,143-46.62E,31,21.848,32.9446
884,2022/7/28,14:43,42-23.51N,143-46.85E,31,21.881,32.929
885,2022/7/28,14:44,42-23.78N,143-47.07E,31,21.893,32.9131
886,2022/7/28,14:45,42-24.07N,143-47.31E,31,21.929,32.8968
887,2022/7/28,14:46,42-24.33N,143-47.53E,31,21.892,32.8759
888,2022/7/28,14:47,42-24.61N,143-47.76E,31,21.87,32.8644
889,2022/7/28,14:48,42-24.89N,143-47.99E,31,21.932,32.8724
890,2022/7/28,14:49,42-25.15N,143-48.22E,32,21.959,32.8843
891,2022/7/28,14:50,42-25.43N,143-48.45E,31,21.981,32.8832
892,2022/7/28,14:51,42-25.70N,143-48.67E,32,21.991,32.8917
893,2022/7/28,14:52,42-25.97N,143-48.90E,32,21.998,32.9177